Location: Rochester
(43.1610°N, 77.6109°W)
Time: 12:34:31
(UTC-04:00)

ISS - Visible Passes

Search period start: 16 May 2021 00:00
Search period end: 26 May 2021 00:00
Orbit: 417 x 422 km, 51.6° (Epoch: 15 May)

Date Brightness Start Highest point End Pass type
(mag) Time Alt. Az. Time Alt. Az. Time Alt. Az.
16 May -1.0 01:30:46 10° NW 01:33:22 20° N 01:35:59 10° ENE visible
16 May -2.8 03:07:27 10° NW 03:10:45 49° NNE 03:14:02 10° ESE visible
16 May -2.6 04:44:36 10° W 04:47:24 24° SW 04:50:10 10° SSE visible
16 May -3.8 21:27:46 10° SW 21:31:05 65° SE 21:34:26 10° ENE visible
16 May -1.6 23:05:10 10° W 23:08:07 27° NNW 23:11:05 10° NE visible
17 May -0.9 00:43:12 10° NW 00:45:42 19° N 00:48:13 10° NE visible
17 May -1.5 02:20:04 10° NW 02:26:37 - E 02:21:38 22° NNW visible
17 May -3.4 04:00:10 39° SW 04:00:10 39° SW 04:03:14 10° SSE visible
17 May -2.1 22:17:24 10° W 22:20:32 35° NNW 22:23:41 10° NE visible
17 May -0.9 23:55:31 10° NW 23:58:02 19° N 00:00:33 10° NE visible
18 May -1.3 01:32:40 10° NW 01:34:27 22° NNW 01:34:27 22° NNW visible
18 May -2.8 21:29:42 10° WSW 21:32:59 50° NNW 21:36:17 10° NE visible
18 May -1.0 23:07:46 10° WNW 23:10:21 20° N 23:12:57 10° NE visible
19 May -1.3 00:45:14 10° NW 00:47:59 23° NNE 00:48:07 23° NNE visible
19 May -1.2 22:19:57 10° WNW 22:22:41 23° NNW 22:25:28 10° NE visible
19 May -1.1 23:57:44 10° NW 00:00:20 20° N 00:01:58 15° NE visible
20 May -0.9 01:34:24 10° NW 01:34:53 13° NW 01:34:53 13° NW visible
20 May -1.5 21:32:07 10° W 21:35:04 27° NNW 21:38:01 10° NE visible
20 May -1.0 23:10:09 10° NW 23:12:38 19° N 23:15:09 10° NE visible
21 May -1.5 00:47:00 10° NW 00:48:48 25° NNW 00:48:48 25° NNW visible
21 May -1.0 22:22:27 10° NW 22:24:57 19° N 22:27:27 10° NE visible
21 May -1.8 23:59:35 10° NW 00:02:32 27° NNE 00:02:45 27° NNE visible
22 May -1.1 21:34:40 10° WNW 21:37:16 20° N 21:39:52 10° NE visible
22 May -1.5 23:12:08 10° NW 23:14:53 23° NNE 23:16:44 15° NE visible
23 May -1.2 00:48:44 10° NW 00:49:41 18° NW 00:49:41 18° NW visible
23 May -1.3 22:24:37 10° NW 22:27:13 20° N 22:29:49 10° ENE visible
24 May -2.3 00:01:18 10° NW 00:03:41 37° NNW 00:03:41 37° NNW visible
24 May -1.2 21:37:01 10° NW 21:39:31 19° N 21:42:01 10° NE visible
24 May -2.4 23:13:52 10° NW 23:17:01 35° NNE 23:17:43 31° NE visible
25 May -1.9 22:26:27 10° NW 22:29:24 27° NNE 22:31:46 13° ENE visible
